カタログに戻る

WEOS

運用中科学SSO
NORAD 27599·PAYLOAD·🇯🇵 Japan

打ち上げ Dec 14, 2002 から Tanegashima Space Center

Loading…

次のパス (今後24時間)

TLE

最新Source: Space-Track

元期: Sep 14, 2026, 09:03 UTC

1 27599U 02056C   26257.37712448  .00000115  00000-0  61181-4 0  9991
2 27599  98.8277 226.4635 0010603  55.9923 304.2265 14.30873099239107

AllMySatでWEOSをリアルタイム追跡

Download on the App Store